Year,Month,Day,Hour,Minute,Value (Times are PST for temperature in C)
2009,07,01,00,00,11.20
2009,07,01,00,01,11.20
2009,07,01,00,02,11.20
2009,07,01,00,03,11.20
2009,07,01,00,04,11.10
2009,07,01,00,05,11.10
2009,07,01,00,06,11.10
2009,07,01,00,07,11.10
2009,07,01,00,08,11.00
2009,07,01,00,09,11.00
2009,07,01,00,10,11.00
2009,07,01,00,11,10.90
2009,07,01,00,12,10.90
2009,07,01,00,13,10.90
2009,07,01,00,14,10.80
2009,07,01,00,15,10.80
2009,07,01,00,16,10.80
2009,07,01,00,17,10.80
2009,07,01,00,18,10.80
2009,07,01,00,19,10.80
2009,07,01,00,20,10.80
2009,07,01,00,21,10.90
2009,07,01,00,22,10.90
2009,07,01,00,23,10.90
2009,07,01,00,24,10.90
2009,07,01,00,25,10.80
2009,07,01,00,26,10.80
2009,07,01,00,27,10.80
2009,07,01,00,28,10.80
2009,07,01,00,29,10.80
2009,07,01,00,30,10.70
2009,07,01,00,31,10.70
2009,07,01,00,32,10.70
2009,07,01,00,33,10.70
2009,07,01,00,34,10.60
2009,07,01,00,35,10.60
2009,07,01,00,36,10.60
2009,07,01,00,37,10.50
2009,07,01,00,38,10.50
2009,07,01,00,39,10.50
2009,07,01,00,40,10.40
2009,07,01,00,41,10.40
2009,07,01,00,42,10.40
2009,07,01,00,43,10.40
2009,07,01,00,44,10.40
2009,07,01,00,45,10.40
2009,07,01,00,46,10.30
2009,07,01,00,47,10.30
2009,07,01,00,48,10.30
2009,07,01,00,49,10.30
2009,07,01,00,50,10.30
2009,07,01,00,51,10.30
2009,07,01,00,52,10.20
2009,07,01,00,53,10.20
2009,07,01,00,54,10.20
2009,07,01,00,55,10.20
2009,07,01,00,56,10.20
2009,07,01,00,57,10.20
2009,07,01,00,58,10.20
2009,07,01,00,59,10.20
2009,07,01,01,00,10.10
2009,07,01,01,01,10.10
2009,07,01,01,02,10.10
2009,07,01,01,03,10.10
2009,07,01,01,04,10.10
2009,07,01,01,05,10.10
2009,07,01,01,06,10.00
2009,07,01,01,07,10.00
2009,07,01,01,08,10.00
2009,07,01,01,09,9.90
2009,07,01,01,10,9.90
2009,07,01,01,11,9.90
2009,07,01,01,12,9.90
2009,07,01,01,13,9.90
2009,07,01,01,14,9.80
2009,07,01,01,15,9.80
2009,07,01,01,16,9.80
2009,07,01,01,17,9.80
2009,07,01,01,18,9.80
2009,07,01,01,19,9.80
2009,07,01,01,20,9.80
2009,07,01,01,21,9.70
2009,07,01,01,22,9.70
2009,07,01,01,23,9.70
2009,07,01,01,24,9.70
2009,07,01,01,25,9.70
2009,07,01,01,26,9.70
2009,07,01,01,27,9.70
2009,07,01,01,28,9.70
2009,07,01,01,29,9.70
2009,07,01,01,30,9.70
2009,07,01,01,31,9.70
2009,07,01,01,32,9.60
2009,07,01,01,33,9.60
2009,07,01,01,34,9.60
2009,07,01,01,35,9.60
2009,07,01,01,36,9.60
2009,07,01,01,37,9.60
2009,07,01,01,38,9.60
2009,07,01,01,39,9.60
2009,07,01,01,40,9.60
2009,07,01,01,41,9.60
2009,07,01,01,42,9.50
2009,07,01,01,43,9.50
2009,07,01,01,44,9.50
2009,07,01,01,45,9.50
2009,07,01,01,46,9.50
2009,07,01,01,47,9.40
2009,07,01,01,48,9.40
2009,07,01,01,49,9.40
2009,07,01,01,50,9.40
2009,07,01,01,51,9.30
2009,07,01,01,52,9.30
2009,07,01,01,53,9.30
2009,07,01,01,54,9.30
2009,07,01,01,55,9.30
2009,07,01,01,56,9.30
2009,07,01,01,57,9.20
2009,07,01,01,58,9.30
2009,07,01,01,59,9.20
2009,07,01,02,00,9.20
2009,07,01,02,01,9.20
2009,07,01,02,02,9.20
2009,07,01,02,03,9.20
2009,07,01,02,04,9.20
2009,07,01,02,05,9.10
2009,07,01,02,06,9.10
2009,07,01,02,07,9.10
2009,07,01,02,08,9.10
2009,07,01,02,09,9.00
2009,07,01,02,10,9.00
2009,07,01,02,11,9.00
2009,07,01,02,12,9.00
2009,07,01,02,13,9.00
2009,07,01,02,14,8.90
2009,07,01,02,15,8.90
2009,07,01,02,16,8.90
2009,07,01,02,17,8.90
2009,07,01,02,18,8.90
2009,07,01,02,19,8.90
2009,07,01,02,20,8.90
2009,07,01,02,21,8.90
2009,07,01,02,22,8.90
2009,07,01,02,23,8.90
2009,07,01,02,24,8.80
2009,07,01,02,25,8.80
2009,07,01,02,26,8.80
2009,07,01,02,27,8.80
2009,07,01,02,28,8.80
2009,07,01,02,29,8.80
2009,07,01,02,30,8.80
2009,07,01,02,31,8.80
2009,07,01,02,32,8.80
2009,07,01,02,33,8.80
2009,07,01,02,34,8.70
2009,07,01,02,35,8.70
2009,07,01,02,36,8.60
2009,07,01,02,37,8.60
2009,07,01,02,38,8.60
2009,07,01,02,39,8.60
2009,07,01,02,40,8.60
2009,07,01,02,41,8.50
2009,07,01,02,42,8.50
2009,07,01,02,43,8.50
2009,07,01,02,44,8.50
2009,07,01,02,45,8.40
2009,07,01,02,46,8.40
2009,07,01,02,47,8.40
2009,07,01,02,48,8.40
2009,07,01,02,49,8.40
2009,07,01,02,50,8.40
2009,07,01,02,51,8.40
2009,07,01,02,52,8.30
2009,07,01,02,53,8.30
2009,07,01,02,54,8.30
2009,07,01,02,55,8.30
2009,07,01,02,56,8.30
2009,07,01,02,57,8.30
2009,07,01,02,58,8.20
2009,07,01,02,59,8.20
2009,07,01,03,00,8.20
2009,07,01,03,01,8.20
2009,07,01,03,02,8.20
2009,07,01,03,03,8.20
2009,07,01,03,04,8.20
2009,07,01,03,05,8.20
2009,07,01,03,06,8.20
2009,07,01,03,07,8.20
2009,07,01,03,08,8.20
2009,07,01,03,09,8.20
2009,07,01,03,10,8.20
2009,07,01,03,11,8.20
2009,07,01,03,12,8.20
2009,07,01,03,13,8.10
2009,07,01,03,14,8.10
2009,07,01,03,15,8.10
2009,07,01,03,16,8.10
2009,07,01,03,17,8.10
2009,07,01,03,18,8.10
2009,07,01,03,19,8.10
2009,07,01,03,20,8.10
2009,07,01,03,21,8.10
2009,07,01,03,22,8.10
2009,07,01,03,23,8.10
2009,07,01,03,24,8.10
2009,07,01,03,25,8.10
2009,07,01,03,26,8.10
2009,07,01,03,27,8.10
2009,07,01,03,28,8.10
2009,07,01,03,29,8.10
2009,07,01,03,30,8.00
2009,07,01,03,31,8.00
2009,07,01,03,32,8.00
2009,07,01,03,33,8.00
2009,07,01,03,34,8.00
2009,07,01,03,35,8.00
2009,07,01,03,36,8.00
2009,07,01,03,37,8.00
2009,07,01,03,38,8.00
2009,07,01,03,39,8.00
2009,07,01,03,40,8.00
2009,07,01,03,41,8.00
2009,07,01,03,42,8.00
2009,07,01,03,43,8.00
2009,07,01,03,44,8.00
2009,07,01,03,45,8.00
2009,07,01,03,46,8.00
2009,07,01,03,47,8.00
2009,07,01,03,48,8.00
2009,07,01,03,49,8.00
2009,07,01,03,50,7.90
2009,07,01,03,51,7.90
2009,07,01,03,52,7.90
2009,07,01,03,53,7.90
2009,07,01,03,54,7.90
2009,07,01,03,55,7.90
2009,07,01,03,56,7.90
2009,07,01,03,57,7.90
2009,07,01,03,58,7.90
2009,07,01,03,59,7.80
2009,07,01,04,00,7.80
2009,07,01,04,01,7.80
2009,07,01,04,02,7.80
2009,07,01,04,03,7.80
2009,07,01,04,04,7.80
2009,07,01,04,05,7.80
2009,07,01,04,06,7.80
2009,07,01,04,07,7.80
2009,07,01,04,08,7.80
2009,07,01,04,09,7.80
2009,07,01,04,10,7.80
2009,07,01,04,11,7.70
2009,07,01,04,12,7.70
2009,07,01,04,13,7.70
2009,07,01,04,14,7.70
2009,07,01,04,15,7.70
2009,07,01,04,16,7.70
2009,07,01,04,17,7.60
2009,07,01,04,18,7.60
2009,07,01,04,19,7.60
2009,07,01,04,20,7.60
2009,07,01,04,21,7.60
2009,07,01,04,22,7.60
2009,07,01,04,23,7.60
2009,07,01,04,24,7.60
2009,07,01,04,25,7.60
2009,07,01,04,26,7.60
2009,07,01,04,27,7.60
2009,07,01,04,28,7.60
2009,07,01,04,29,7.60
2009,07,01,04,30,7.70
2009,07,01,04,31,7.70
2009,07,01,04,32,7.70
2009,07,01,04,33,7.70
2009,07,01,04,34,7.70
2009,07,01,04,35,7.70
2009,07,01,04,36,7.60
2009,07,01,04,37,7.60
2009,07,01,04,38,7.60
2009,07,01,04,39,7.60
2009,07,01,04,40,7.60
2009,07,01,04,41,7.60
2009,07,01,04,42,7.60
2009,07,01,04,43,7.60
2009,07,01,04,44,7.60
2009,07,01,04,45,7.60
2009,07,01,04,46,7.60
2009,07,01,04,47,7.60
2009,07,01,04,48,7.60
2009,07,01,04,49,7.70
2009,07,01,04,50,7.70
2009,07,01,04,51,7.70
2009,07,01,04,52,7.70
2009,07,01,04,53,7.70
2009,07,01,04,54,7.70
2009,07,01,04,55,7.70
2009,07,01,04,56,7.60
2009,07,01,04,57,7.60
2009,07,01,04,58,7.60
2009,07,01,04,59,7.60
2009,07,01,05,00,7.60
2009,07,01,05,01,7.60
2009,07,01,05,02,7.60
2009,07,01,05,03,7.60
2009,07,01,05,04,7.60
2009,07,01,05,05,7.60
2009,07,01,05,06,7.60
2009,07,01,05,07,7.50
2009,07,01,05,08,7.50
2009,07,01,05,09,7.50
2009,07,01,05,10,7.40
2009,07,01,05,11,7.40
2009,07,01,05,12,7.40
2009,07,01,05,13,7.40
2009,07,01,05,14,7.40
2009,07,01,05,15,7.40
2009,07,01,05,16,7.40
2009,07,01,05,17,7.40
2009,07,01,05,18,7.40
2009,07,01,05,19,7.40
2009,07,01,05,20,7.40
2009,07,01,05,21,7.40
2009,07,01,05,22,7.40
2009,07,01,05,23,7.40
2009,07,01,05,24,7.40
2009,07,01,05,25,7.40
2009,07,01,05,26,7.40
2009,07,01,05,27,7.40
2009,07,01,05,28,7.40
2009,07,01,05,29,7.40
2009,07,01,05,30,7.40
2009,07,01,05,31,7.50
2009,07,01,05,32,7.50
2009,07,01,05,33,7.50
2009,07,01,05,34,7.60
2009,07,01,05,35,7.60
2009,07,01,05,36,7.60
2009,07,01,05,37,7.60
2009,07,01,05,38,7.60
2009,07,01,05,39,7.60
2009,07,01,05,40,7.60
2009,07,01,05,41,7.60
2009,07,01,05,42,7.60
2009,07,01,05,43,7.60
2009,07,01,05,44,7.60
2009,07,01,05,45,7.60
2009,07,01,05,46,7.50
2009,07,01,05,47,7.50
2009,07,01,05,48,7.50
2009,07,01,05,49,7.50
2009,07,01,05,50,7.50
2009,07,01,05,51,7.50
2009,07,01,05,52,7.50
2009,07,01,05,53,7.50
2009,07,01,05,54,7.60
2009,07,01,05,55,7.60
2009,07,01,05,56,7.60
2009,07,01,05,57,7.60
2009,07,01,05,58,7.70
2009,07,01,05,59,7.70
2009,07,01,06,00,7.70
2009,07,01,06,01,7.80
2009,07,01,06,02,7.80
2009,07,01,06,03,7.80
2009,07,01,06,04,7.90
2009,07,01,06,05,7.90
2009,07,01,06,06,8.00
2009,07,01,06,07,8.00
2009,07,01,06,08,8.10
2009,07,01,06,09,8.10
2009,07,01,06,10,8.10
2009,07,01,06,11,8.20
2009,07,01,06,12,8.20
2009,07,01,06,13,8.30
2009,07,01,06,14,8.30
2009,07,01,06,15,8.40
2009,07,01,06,16,8.40
2009,07,01,06,17,8.50
2009,07,01,06,18,8.50
2009,07,01,06,19,8.60
2009,07,01,06,20,8.60
2009,07,01,06,21,8.70
2009,07,01,06,22,8.70
2009,07,01,06,23,8.80
2009,07,01,06,24,8.80
2009,07,01,06,25,8.90
2009,07,01,06,26,8.90
2009,07,01,06,27,9.00
2009,07,01,06,28,9.00
2009,07,01,06,29,9.10
2009,07,01,06,30,9.10
2009,07,01,06,31,9.20
2009,07,01,06,32,9.20
2009,07,01,06,33,9.30
2009,07,01,06,34,9.30
2009,07,01,06,35,9.40
2009,07,01,06,36,9.50
2009,07,01,06,37,9.50
2009,07,01,06,38,9.60
2009,07,01,06,39,9.70
2009,07,01,06,40,9.80
2009,07,01,06,41,9.90
2009,07,01,06,42,10.00
2009,07,01,06,43,10.20
2009,07,01,06,44,10.30
2009,07,01,06,45,10.40
2009,07,01,06,46,10.50
2009,07,01,06,47,10.70
2009,07,01,06,48,10.80
2009,07,01,06,49,10.90
2009,07,01,06,50,11.00
2009,07,01,06,51,11.10
2009,07,01,06,52,11.20
2009,07,01,06,53,11.30
2009,07,01,06,54,11.40
2009,07,01,06,55,11.50
2009,07,01,06,56,11.60
2009,07,01,06,57,11.70
2009,07,01,06,58,11.80
2009,07,01,06,59,11.80
2009,07,01,07,00,11.80
2009,07,01,07,01,11.90
2009,07,01,07,02,11.90
2009,07,01,07,03,11.90
2009,07,01,07,04,12.00
2009,07,01,07,05,12.00
2009,07,01,07,06,12.10
2009,07,01,07,07,12.20
2009,07,01,07,08,12.20
2009,07,01,07,09,12.30
2009,07,01,07,10,12.40
2009,07,01,07,11,12.40
2009,07,01,07,12,12.50
2009,07,01,07,13,12.60
2009,07,01,07,14,12.70
2009,07,01,07,15,12.80
2009,07,01,07,16,12.90
2009,07,01,07,17,13.00
2009,07,01,07,18,13.10
2009,07,01,07,19,13.20
2009,07,01,07,20,13.40
2009,07,01,07,21,13.50
2009,07,01,07,22,13.60
2009,07,01,07,23,13.70
2009,07,01,07,24,13.80
2009,07,01,07,25,13.90
2009,07,01,07,26,14.10
2009,07,01,07,27,14.20
2009,07,01,07,28,14.30
2009,07,01,07,29,14.50
2009,07,01,07,30,14.60
2009,07,01,07,31,14.70
2009,07,01,07,32,14.80
2009,07,01,07,33,14.90
2009,07,01,07,34,15.00
2009,07,01,07,35,15.00
2009,07,01,07,36,15.10
2009,07,01,07,37,15.10
2009,07,01,07,38,15.20
2009,07,01,07,39,15.20
2009,07,01,07,40,15.20
2009,07,01,07,41,15.20
2009,07,01,07,42,15.20
2009,07,01,07,43,15.20
2009,07,01,07,44,15.30
2009,07,01,07,45,15.30
2009,07,01,07,46,15.40
2009,07,01,07,47,15.40
2009,07,01,07,48,15.50
2009,07,01,07,49,15.60
2009,07,01,07,50,15.60
2009,07,01,07,51,15.70
2009,07,01,07,52,15.70
2009,07,01,07,53,15.80
2009,07,01,07,54,15.80
2009,07,01,07,55,15.90
2009,07,01,07,56,15.90
2009,07,01,07,57,15.90
2009,07,01,07,58,16.00
2009,07,01,07,59,16.00
2009,07,01,08,00,16.10
2009,07,01,08,01,16.10
2009,07,01,08,02,16.20
2009,07,01,08,03,16.20
2009,07,01,08,04,16.30
2009,07,01,08,05,16.30
2009,07,01,08,06,16.40
2009,07,01,08,07,16.40
2009,07,01,08,08,16.40
2009,07,01,08,09,16.50
2009,07,01,08,10,16.50
2009,07,01,08,11,16.50
2009,07,01,08,12,16.50
2009,07,01,08,13,16.60
2009,07,01,08,14,16.60
2009,07,01,08,15,16.60
2009,07,01,08,16,16.50
2009,07,01,08,17,16.50
2009,07,01,08,18,16.50
2009,07,01,08,19,16.50
2009,07,01,08,20,16.50
2009,07,01,08,21,16.50
2009,07,01,08,22,16.60
2009,07,01,08,23,16.60
2009,07,01,08,24,16.60
2009,07,01,08,25,16.60
2009,07,01,08,26,16.60
2009,07,01,08,27,16.70
2009,07,01,08,28,16.80
2009,07,01,08,29,16.80
2009,07,01,08,30,16.80
2009,07,01,08,31,16.70
2009,07,01,08,32,16.70
2009,07,01,08,33,16.60
2009,07,01,08,34,16.50
2009,07,01,08,35,16.50
2009,07,01,08,36,16.50
2009,07,01,08,37,16.50
2009,07,01,08,38,16.50
2009,07,01,08,39,16.60
2009,07,01,08,40,16.60
2009,07,01,08,41,16.70
2009,07,01,08,42,16.80
2009,07,01,08,43,16.80
2009,07,01,08,44,16.80
2009,07,01,08,45,16.80
2009,07,01,08,46,16.80
2009,07,01,08,47,16.80
2009,07,01,08,48,16.90
2009,07,01,08,49,17.00
2009,07,01,08,50,17.00
2009,07,01,08,51,17.10
2009,07,01,08,52,17.10
2009,07,01,08,53,17.20
2009,07,01,08,54,17.30
2009,07,01,08,55,17.30
2009,07,01,08,56,17.30
2009,07,01,08,57,17.40
2009,07,01,08,58,17.40
2009,07,01,08,59,17.40
2009,07,01,09,00,17.40
2009,07,01,09,01,17.40
2009,07,01,09,02,17.60
2009,07,01,09,03,17.60
2009,07,01,09,04,17.70
2009,07,01,09,05,17.70
2009,07,01,09,06,17.80
2009,07,01,09,07,17.80
2009,07,01,09,08,17.80
2009,07,01,09,09,17.70
2009,07,01,09,10,17.60
2009,07,01,09,11,17.40
2009,07,01,09,12,17.30
2009,07,01,09,13,17.30
2009,07,01,09,14,17.40
2009,07,01,09,15,17.40
2009,07,01,09,16,17.40
2009,07,01,09,17,17.30
2009,07,01,09,18,17.30
2009,07,01,09,19,17.30
2009,07,01,09,20,17.30
2009,07,01,09,21,17.20
2009,07,01,09,22,17.10
2009,07,01,09,23,17.10
2009,07,01,09,24,17.00
2009,07,01,09,25,17.00
2009,07,01,09,26,17.20
2009,07,01,09,27,17.40
2009,07,01,09,28,17.50
2009,07,01,09,29,17.70
2009,07,01,09,30,17.80
2009,07,01,09,31,17.90
2009,07,01,09,32,17.90
2009,07,01,09,33,17.90
2009,07,01,09,34,17.90
2009,07,01,09,35,17.80
2009,07,01,09,36,17.80
2009,07,01,09,37,17.70
2009,07,01,09,38,17.70
2009,07,01,09,39,17.60
2009,07,01,09,40,17.60
2009,07,01,09,41,17.50
2009,07,01,09,42,17.50
2009,07,01,09,43,17.40
2009,07,01,09,44,17.40
2009,07,01,09,45,17.40
2009,07,01,09,46,17.50
2009,07,01,09,47,17.60
2009,07,01,09,48,17.60
2009,07,01,09,49,17.60
2009,07,01,09,50,17.70
2009,07,01,09,51,17.70
2009,07,01,09,52,17.70
2009,07,01,09,53,17.70
2009,07,01,09,54,17.60
2009,07,01,09,55,17.60
2009,07,01,09,56,17.60
2009,07,01,09,57,17.70
2009,07,01,09,58,17.80
2009,07,01,09,59,17.80
2009,07,01,10,00,17.80
2009,07,01,10,01,17.90
2009,07,01,10,02,18.00
2009,07,01,10,03,18.10
2009,07,01,10,04,18.20
2009,07,01,10,05,18.30
2009,07,01,10,06,18.30
2009,07,01,10,07,18.30
2009,07,01,10,08,18.20
2009,07,01,10,09,18.30
2009,07,01,10,10,18.30
2009,07,01,10,11,18.30
2009,07,01,10,12,18.30
2009,07,01,10,13,18.30
2009,07,01,10,14,18.30
2009,07,01,10,15,18.30
2009,07,01,10,16,18.40
2009,07,01,10,17,18.50
2009,07,01,10,18,18.40
2009,07,01,10,19,18.50
2009,07,01,10,20,18.60
2009,07,01,10,21,18.60
2009,07,01,10,22,18.60
2009,07,01,10,23,18.70
2009,07,01,10,24,18.70
2009,07,01,10,25,18.80
2009,07,01,10,26,18.70
2009,07,01,10,27,18.70
2009,07,01,10,28,18.70
2009,07,01,10,29,18.70
2009,07,01,10,30,18.70
2009,07,01,10,31,18.70
2009,07,01,10,32,18.70
2009,07,01,10,33,18.70
2009,07,01,10,34,18.70
2009,07,01,10,35,18.80
2009,07,01,10,36,18.80
2009,07,01,10,37,18.90
2009,07,01,10,38,18.90
2009,07,01,10,39,18.80
2009,07,01,10,40,18.70
2009,07,01,10,41,18.60
2009,07,01,10,42,18.60
2009,07,01,10,43,18.60
2009,07,01,10,44,18.60
2009,07,01,10,45,18.50
2009,07,01,10,46,18.50
2009,07,01,10,47,18.50
2009,07,01,10,48,18.40
2009,07,01,10,49,18.50
2009,07,01,10,50,18.60
2009,07,01,10,51,18.60
2009,07,01,10,52,18.50
2009,07,01,10,53,18.50
2009,07,01,10,54,18.50
2009,07,01,10,55,18.50
2009,07,01,10,56,18.60
2009,07,01,10,57,18.70
2009,07,01,10,58,18.80
2009,07,01,10,59,18.90
2009,07,01,11,00,19.00
2009,07,01,11,01,19.10
2009,07,01,11,02,19.10
2009,07,01,11,03,19.10
2009,07,01,11,04,19.10
2009,07,01,11,05,19.10
2009,07,01,11,06,19.10
2009,07,01,11,07,19.10
2009,07,01,11,08,19.10
2009,07,01,11,09,19.10
2009,07,01,11,10,19.00
2009,07,01,11,11,19.00
2009,07,01,11,12,19.10
2009,07,01,11,13,19.10
2009,07,01,11,14,19.10
2009,07,01,11,15,19.10
2009,07,01,11,16,19.10
2009,07,01,11,17,19.10
2009,07,01,11,18,19.10
2009,07,01,11,19,19.20
2009,07,01,11,20,19.20
2009,07,01,11,21,19.40
2009,07,01,11,22,19.40
2009,07,01,11,23,19.40
2009,07,01,11,24,19.40
2009,07,01,11,25,19.20
2009,07,01,11,26,19.10
2009,07,01,11,27,18.90
2009,07,01,11,28,18.70
2009,07,01,11,29,18.60
2009,07,01,11,30,18.40
2009,07,01,11,31,18.40
2009,07,01,11,32,18.30
2009,07,01,11,33,18.30
2009,07,01,11,34,18.20
2009,07,01,11,35,18.20
2009,07,01,11,36,18.30
2009,07,01,11,37,18.30
2009,07,01,11,38,18.30
2009,07,01,11,39,18.30
2009,07,01,11,40,18.40
2009,07,01,11,41,18.40
2009,07,01,11,42,18.30
2009,07,01,11,43,18.30
2009,07,01,11,44,18.40
2009,07,01,11,45,18.40
2009,07,01,11,46,18.30
2009,07,01,11,47,18.40
2009,07,01,11,48,18.30
2009,07,01,11,49,18.30
2009,07,01,11,50,18.40
2009,07,01,11,51,18.40
2009,07,01,11,52,18.50
2009,07,01,11,53,18.60
2009,07,01,11,54,18.60
2009,07,01,11,55,18.60
2009,07,01,11,56,18.70
2009,07,01,11,57,18.80
2009,07,01,11,58,18.80
2009,07,01,11,59,18.90
2009,07,01,12,00,19.00
2009,07,01,12,01,19.00
2009,07,01,12,02,19.10
2009,07,01,12,03,19.10
2009,07,01,12,04,19.00
2009,07,01,12,05,19.00
2009,07,01,12,06,18.90
2009,07,01,12,07,18.90
2009,07,01,12,08,18.90
2009,07,01,12,09,18.90
2009,07,01,12,10,18.90
2009,07,01,12,11,18.80
2009,07,01,12,12,18.80
2009,07,01,12,13,18.60
2009,07,01,12,14,18.60
2009,07,01,12,15,18.50
2009,07,01,12,16,18.50
2009,07,01,12,17,18.50
2009,07,01,12,18,18.60
2009,07,01,12,19,18.60
2009,07,01,12,20,18.70
2009,07,01,12,21,18.70
2009,07,01,12,22,18.70
2009,07,01,12,23,18.80
2009,07,01,12,24,18.80
2009,07,01,12,25,18.80
2009,07,01,12,26,18.80
2009,07,01,12,27,18.80
2009,07,01,12,28,18.70
2009,07,01,12,29,18.70
2009,07,01,12,30,18.70
2009,07,01,12,31,18.70
2009,07,01,12,32,18.70
2009,07,01,12,33,18.70
2009,07,01,12,34,18.70
2009,07,01,12,35,18.70
2009,07,01,12,36,18.60
2009,07,01,12,37,18.60
2009,07,01,12,38,18.60
2009,07,01,12,39,18.60
2009,07,01,12,40,18.60
2009,07,01,12,41,18.60
2009,07,01,12,42,18.60
2009,07,01,12,43,18.70
2009,07,01,12,44,18.70
2009,07,01,12,45,18.80
2009,07,01,12,46,18.80
2009,07,01,12,47,18.80
2009,07,01,12,48,18.80
2009,07,01,12,49,18.80
2009,07,01,12,50,18.70
2009,07,01,12,51,18.70
2009,07,01,12,52,18.80
2009,07,01,12,53,18.90
2009,07,01,12,54,19.10
2009,07,01,12,55,19.20
2009,07,01,12,56,19.20
2009,07,01,12,57,19.30
2009,07,01,12,58,19.30
2009,07,01,12,59,19.40
2009,07,01,13,00,19.50
2009,07,01,13,01,19.50
2009,07,01,13,02,19.40
2009,07,01,13,03,19.40
2009,07,01,13,04,19.50
2009,07,01,13,05,19.50
2009,07,01,13,06,19.50
2009,07,01,13,07,19.50
2009,07,01,13,08,19.50
2009,07,01,13,09,19.50
2009,07,01,13,10,19.60
2009,07,01,13,11,19.60
2009,07,01,13,12,19.70
2009,07,01,13,13,19.80
2009,07,01,13,14,19.70
2009,07,01,13,15,19.70
2009,07,01,13,16,19.60
2009,07,01,13,17,19.50
2009,07,01,13,18,19.50
2009,07,01,13,19,19.40
2009,07,01,13,20,19.50
2009,07,01,13,21,19.50
2009,07,01,13,22,19.60
2009,07,01,13,23,19.60
2009,07,01,13,24,19.60
2009,07,01,13,25,19.70
2009,07,01,13,26,19.70
2009,07,01,13,27,19.80
2009,07,01,13,28,19.90
2009,07,01,13,29,19.90
2009,07,01,13,30,19.90
2009,07,01,13,31,20.10
2009,07,01,13,32,20.20
2009,07,01,13,33,20.30
2009,07,01,13,34,20.20
2009,07,01,13,35,20.10
2009,07,01,13,36,20.00
2009,07,01,13,37,20.00
2009,07,01,13,38,20.00
2009,07,01,13,39,20.20
2009,07,01,13,40,20.40
2009,07,01,13,41,20.60
2009,07,01,13,42,20.70
2009,07,01,13,43,20.70
2009,07,01,13,44,20.70
2009,07,01,13,45,20.70
2009,07,01,13,46,20.80
2009,07,01,13,47,20.80
2009,07,01,13,48,20.70
2009,07,01,13,49,20.60
2009,07,01,13,50,20.50
2009,07,01,13,51,20.40
2009,07,01,13,52,20.30
2009,07,01,13,53,20.30
2009,07,01,13,54,20.20
2009,07,01,13,55,20.20
2009,07,01,13,56,20.10
2009,07,01,13,57,20.00
2009,07,01,13,58,20.00
2009,07,01,13,59,19.90
2009,07,01,14,00,19.90
2009,07,01,14,01,19.80
2009,07,01,14,02,19.80
2009,07,01,14,03,19.80
2009,07,01,14,04,19.80
2009,07,01,14,05,19.80
2009,07,01,14,06,19.80
2009,07,01,14,07,19.80
2009,07,01,14,08,19.80
2009,07,01,14,09,19.80
2009,07,01,14,10,19.80
2009,07,01,14,11,19.80
2009,07,01,14,12,19.90
2009,07,01,14,13,20.00
2009,07,01,14,14,20.00
2009,07,01,14,15,20.00
2009,07,01,14,16,20.10
2009,07,01,14,17,20.10
2009,07,01,14,18,20.10
2009,07,01,14,19,20.10
2009,07,01,14,20,20.20
2009,07,01,14,21,20.30
2009,07,01,14,22,20.30
2009,07,01,14,23,20.40
2009,07,01,14,24,20.40
2009,07,01,14,25,20.30
2009,07,01,14,26,20.40
2009,07,01,14,27,20.40
2009,07,01,14,28,20.40
2009,07,01,14,29,20.40
2009,07,01,14,30,20.40
2009,07,01,14,31,20.40
2009,07,01,14,32,20.40
2009,07,01,14,33,20.40
2009,07,01,14,34,20.40
2009,07,01,14,35,20.40
2009,07,01,14,36,20.40
2009,07,01,14,37,20.40
2009,07,01,14,38,20.50
2009,07,01,14,39,20.60
2009,07,01,14,40,20.70
2009,07,01,14,41,20.80
2009,07,01,14,42,20.80
2009,07,01,14,43,20.80
2009,07,01,14,44,20.80
2009,07,01,14,45,20.80
2009,07,01,14,46,20.80
2009,07,01,14,47,20.80
2009,07,01,14,48,20.80
2009,07,01,14,49,20.70
2009,07,01,14,50,20.70
2009,07,01,14,51,20.70
2009,07,01,14,52,20.70
2009,07,01,14,53,20.70
2009,07,01,14,54,20.80
2009,07,01,14,55,20.80
2009,07,01,14,56,20.80
2009,07,01,14,57,20.80
2009,07,01,14,58,20.90
2009,07,01,14,59,21.00
2009,07,01,15,00,21.10
2009,07,01,15,01,21.20
2009,07,01,15,02,21.20
2009,07,01,15,03,21.20
2009,07,01,15,04,21.20
2009,07,01,15,05,21.30
2009,07,01,15,06,21.40
2009,07,01,15,07,21.40
2009,07,01,15,08,21.50
2009,07,01,15,09,21.50
2009,07,01,15,10,21.60
2009,07,01,15,11,21.70
2009,07,01,15,12,21.70
2009,07,01,15,13,21.70
2009,07,01,15,14,21.60
2009,07,01,15,15,21.60
2009,07,01,15,16,21.60
2009,07,01,15,17,21.60
2009,07,01,15,18,21.70
2009,07,01,15,19,21.80
2009,07,01,15,20,21.80
2009,07,01,15,21,21.90
2009,07,01,15,22,21.90
2009,07,01,15,23,21.90
2009,07,01,15,24,21.90
2009,07,01,15,25,21.90
2009,07,01,15,26,21.90
2009,07,01,15,27,21.80
2009,07,01,15,28,21.90
2009,07,01,15,29,21.90
2009,07,01,15,30,21.80
2009,07,01,15,31,21.80
2009,07,01,15,32,21.90
2009,07,01,15,33,22.00
2009,07,01,15,34,22.10
2009,07,01,15,35,22.10
2009,07,01,15,36,22.10
2009,07,01,15,37,22.10
2009,07,01,15,38,22.10
2009,07,01,15,39,22.00
2009,07,01,15,40,21.90
2009,07,01,15,41,21.80
2009,07,01,15,42,21.70
2009,07,01,15,43,21.60
2009,07,01,15,44,21.60
2009,07,01,15,45,21.60
2009,07,01,15,46,21.80
2009,07,01,15,47,21.90
2009,07,01,15,48,22.00
2009,07,01,15,49,22.10
2009,07,01,15,50,22.10
2009,07,01,15,51,22.20
2009,07,01,15,52,22.20
2009,07,01,15,53,22.20
2009,07,01,15,54,22.20
2009,07,01,15,55,22.20
2009,07,01,15,56,22.40
2009,07,01,15,57,22.50
2009,07,01,15,58,22.50
2009,07,01,15,59,22.60
2009,07,01,16,00,22.60
2009,07,01,16,01,22.50
2009,07,01,16,02,22.50
2009,07,01,16,03,22.40
2009,07,01,16,04,22.40
2009,07,01,16,05,22.30
2009,07,01,16,06,22.30
2009,07,01,16,07,22.30
2009,07,01,16,08,22.30
2009,07,01,16,09,22.30
2009,07,01,16,10,22.30
2009,07,01,16,11,22.30
2009,07,01,16,12,22.30
2009,07,01,16,13,22.30
2009,07,01,16,14,22.40
2009,07,01,16,15,22.50
2009,07,01,16,16,22.60
2009,07,01,16,17,22.60
2009,07,01,16,18,22.70
2009,07,01,16,19,22.70
2009,07,01,16,20,22.80
2009,07,01,16,21,22.80
2009,07,01,16,22,22.90
2009,07,01,16,23,22.90
2009,07,01,16,24,22.90
2009,07,01,16,25,23.00
2009,07,01,16,26,23.00
2009,07,01,16,27,23.00
2009,07,01,16,28,23.10
2009,07,01,16,29,23.10
2009,07,01,16,30,23.20
2009,07,01,16,31,23.20
2009,07,01,16,32,23.20
2009,07,01,16,33,23.20
2009,07,01,16,34,23.30
2009,07,01,16,35,23.40
2009,07,01,16,36,23.60
2009,07,01,16,37,23.70
2009,07,01,16,38,23.80
2009,07,01,16,39,23.80
2009,07,01,16,40,24.00
2009,07,01,16,41,24.00
2009,07,01,16,42,24.00
2009,07,01,16,43,24.00
2009,07,01,16,44,24.10
2009,07,01,16,45,24.10
2009,07,01,16,46,24.10
2009,07,01,16,47,24.10
2009,07,01,16,48,24.20
2009,07,01,16,49,24.10
2009,07,01,16,50,24.10
2009,07,01,16,51,24.10
2009,07,01,16,52,24.10
2009,07,01,16,53,24.20
2009,07,01,16,54,24.20
2009,07,01,16,55,24.20
2009,07,01,16,56,24.30
2009,07,01,16,57,24.30
2009,07,01,16,58,24.30
2009,07,01,16,59,24.40
2009,07,01,17,00,24.30
2009,07,01,17,01,24.30
2009,07,01,17,02,24.30
2009,07,01,17,03,24.20
2009,07,01,17,04,24.20
2009,07,01,17,05,24.20
2009,07,01,17,06,24.20
2009,07,01,17,07,24.30
2009,07,01,17,08,24.30
2009,07,01,17,09,24.30
2009,07,01,17,10,24.40
2009,07,01,17,11,24.40
2009,07,01,17,12,24.40
2009,07,01,17,13,24.40
2009,07,01,17,14,24.30
2009,07,01,17,15,24.30
2009,07,01,17,16,24.30
2009,07,01,17,17,24.20
2009,07,01,17,18,24.20
2009,07,01,17,19,24.20
2009,07,01,17,20,24.20
2009,07,01,17,21,24.20
2009,07,01,17,22,24.20
2009,07,01,17,23,24.20
2009,07,01,17,24,24.20
2009,07,01,17,25,24.20
2009,07,01,17,26,24.20
2009,07,01,17,27,24.20
2009,07,01,17,28,24.30
2009,07,01,17,29,24.40
2009,07,01,17,30,24.40
2009,07,01,17,31,24.40
2009,07,01,17,32,24.30
2009,07,01,17,33,24.30